Regional Weather Roundup
Issued by NWS

Home | Current Version | Previous Version | Text Only | Print | Product List | Glossary On
Versions: 1 2 3 4 5 6 7 8 9 10 11 12 13 14 15 16 17 18 19 20 21 22 23 24 25 26 27 28 29 30 31 32 33 34 35 36 37 38 39 40 41 42 43 44 45 46 47 48 49 50
000
ASUS42 KTBW 300910
RWRFL
FLORIDA REGIONAL WEATHER ROUNDUP
NATIONAL WEATHER SERVICE TAMPA BAY RUSKIN FL
400 AM EST FRI JAN 30 2015

NOTE: "FAIR" INDICATES FEW OR NO CLOUDS BELOW 12,000 FEET WITH NO
SIGNIFICANT WEATHER AND/OR OBSTRUCTIONS TO VISIBILITY.


FLZ001>010-012>015-112-114-115-301000-
PANHANDLE FLORIDA

CITY           SKY/WX    TMP DP  RH WIND       PRES   REMARKS
PENSACOLA      PTCLDY    58  53  84 N16       30.20R
PENSACOLA NAS  MOCLDY    59  55  87 N12       30.20R
MILTON NAS     PTCLDY    55  52  89 N9        30.21R
CRESTVIEW      PTCLDY    56  54  93 NW9       30.21R
VALPARAISO     PTCLDY    60  55  85 NW9       30.17S
MARY ESTHER    MOCLDY    60  54  80 NW10      30.18R
TRI COUNTY     FAIR      49  48  97 CALM      30.17S
PANAMA CITY    CLOUDY    63  59  87 W10       30.15S
TYNDALL AFB    CLOUDY    63  61  94 W8        30.16F
APALACHICOLA   PTCLDY    62  56  80 W8        30.16F

STATION/POSITION SKY/WX   TEMP    WIND        PRES    WAVE   SWELL
                          AIR SEA DIR/SP/G            HT/PER HT/PER
                          (F)     (DEG/KT/KT) (MB)    (FT/S) (FT/S)
30.1N   87.6W              62 62  320/ 17/ 19 1021.8R   2/ 3
29.2N   88.2W              66 68  300/ 19/ 21 1023.1F   3/ 4
28.7N   86.0W              67 69  260/ 14/ 16 1022.5F   2/ 3
PANAMA CITY BEAC           64 60  290/ 22/ 25 1021.0R
CAPE SAN BLAS    NOT AVBL
TOWER C                    63     240/ 14/ 15 1021.5F
28.5N   84.5W              66 67  250/ 12/ 16 1022.5F   2/ 3

$$
FLZ011-016>038-118-127-128-134-139-239-301000-
NORTH FLORIDA

CITY           SKY/WX    TMP DP  RH WIND       PRES   REMARKS
MARIANNA       PTCLDY    52  52 100 W3        30.16R
TALLAHASSEE    MOCLDY    45  39  79 CALM      30.15F
PERRY          CLEAR     49  49 100 SW3       30.16F FOG
CROSS CITY       N/A     40  38  93 CALM      30.17F
LAKE CITY      FAIR      43  43 100 SW3       30.15F FOG
GAINESVILLE    CLEAR     46  45  96 W5        30.17F WCI  44
MAYPORT NAS    CLEAR     50  43  77 SW7       30.14F
JACKSONVILLE   PTCLDY    44  41  89 SW3       30.14F
JAX NAS        PTCLDY    51  43  74 SW7       30.16F
JAX CRAIG      CLEAR     50  42  74 W6        30.15F
JAX CECIL      CLEAR     41  39  93 CALM      30.16F
FERNANDINA BEA FAIR      52  45  76 SW6       30.13S
ST AUGUSTINE   CLEAR     46  42  86 SW5       30.17F WCI  44

STATION/POSITION SKY/WX   TEMP    WIND        PRES    WAVE   SWELL
                          AIR SEA DIR/SP/G            HT/PER HT/PER
                          (F)     (DEG/KT/KT) (MB)    (FT/S) (FT/S)
SHELL POINT                56     240/  5/  6   N/A
KEATON BEACH               56     170/  5/  6 1021.5F
CEDAR KEY                  56     300/  4/  5 1023.0F
FERNANDINA                 50 55  230/  7/  9 1019.8F
30.7N   81.3W                 56                N/A     2/11   2/11
MAYPORT                    52 57  240/  8/ 10 1020.7F
31.4N   80.9W              54 54  240/ 14/ 16 1019.3F
ST AUGUSTINE               48     230/  4/  5 1021.8F

$$
FLZ040-043>046-052-053-057-058-063-144-301000-
INTERIOR CENTRAL FLORIDA

CITY           SKY/WX    TMP DP  RH WIND       PRES   REMARKS
OCALA          CLEAR     39  36  87 CALM      30.19F
THE VILLAGES     N/A     45  45 100 CALM      30.10S
LEESBURG       CLEAR     48  44  86 CALM      30.21R
SANFORD        CLEAR     49  43  80 W7        30.19R
ORLANDO EXEC   CLEAR     53  47  79 CALM      30.18S
ORLANDO INTL   CLEAR     52  46  82 W8        30.15S
WINTER HAVEN   CLEAR     50  46  86 SW3       30.20F
LAKELAND       CLEAR     45  43  93 CALM      30.20F
BARTOW         FAIR      45  45 100 CALM      30.20F
OKEECHOBEE     CLEAR     43  43 100 CALM      30.19F

$$
FLZ041-047-054-059-064-141-147-301000-
EAST CENTRAL FLORIDA

CITY           SKY/WX    TMP DP  RH WIND       PRES   REMARKS
DAYTONA BEACH  CLEAR     49  44  83 W5        30.20R
DELAND         SUNNY    N/A N/A N/A CALM      30.20R
JFK SPACE CTR  CLEAR     52  49  89 NW2       30.17R
CAPE CANAVERAL CLEAR     51  49  91 W7        30.17S
PATRICK AFB    CLEAR     53  51  93 W6        30.17S
MELBOURNE      CLEAR     48  46  93 W8        30.18S WCI  44
VERO BEACH     CLEAR     47  44  90 CALM      30.17F
FT PIERCE      CLEAR     45  43  93 W3        30.17F FOG
STUART         CLEAR     54  46  76 SW3       30.18F

STATION/POSITION SKY/WX   TEMP    WIND        PRES    WAVE   SWELL
                          AIR SEA DIR/SP/G            HT/PER HT/PER
                          (F)     (DEG/KT/KT) (MB)    (FT/S) (FT/S)
28.5N   80.2W              65 68  220/ 12/ 14 1021.4F
28.9N   78.5W              67 75  220/ 12/ 14 1020.9F   5/11   5/11
TRIDENT PIER               55 62  230/  6/  7 1021.2F
28.4N   80.5W                 62                N/A     2/11   2/11
27.6N   80.2W                 65                N/A     3/11   2/11

$$
FLZ050-056-061-142-242-148-248-149-249-151-251-155-255-
160-260-301000-
WEST CENTRAL FLORIDA

CITY           SKY/WX    TMP DP  RH WIND       PRES   REMARKS
CRYSTAL RIVER  FOG       41  39  93 CALM      30.20F VSB 1/2
INVERNESS      FAIR      41  39  93 CALM      30.21R
BROOKSVILLE    CLEAR     43  42  97 CALM      30.21S
ZEPHYRHILLS    FAIR      43  41  93 CALM      30.21R
CLEARWATER     CLEAR     50  50 100 CALM      30.19S
TAMPA INTL     PTCLDY    52  48  86 CALM      30.20F
TAMPA EXEC     CLEAR     45  43  93 CALM      30.20F FOG
PLANT CITY       N/A    N/A N/A N/A MISG        N/A
MACDILL AFB    CLEAR     46  44  93 S3        30.19F
PETER O KNIGHT CLEAR     54  50  87 CALM      30.19F
ST PETERSBURG  CLEAR     55  52  89 CALM      30.18F
SARASOTA       CLEAR     47  46  97 CALM      30.19F
VENICE         FAIR      50  48  93 NE3       30.21S

STATION/POSITION SKY/WX   TEMP    WIND        PRES    WAVE   SWELL
                          AIR SEA DIR/SP/G            HT/PER HT/PER
                          (F)     (DEG/KT/KT) (MB)    (FT/S) (FT/S)
CEDAR KEY                  56     300/  4/  5 1023.0F
28.5N   84.5W              66 67  250/ 12/ 16 1022.5F   2/ 3
27.3N   84.3W                 72                N/A     1/ 4
CLEARWATER BEACH           57 61  120/  2/  3 1022.0F
MIDDLE TAMPA BAY           56     150/  4/  5 1022.8F
VENICE                     55 63   50/  6/  7 1022.2F

$$
FLZ066-069-070-075>078-162-262-165-265-301000-
SOUTHWEST FLORIDA AND KEYS

CITY           SKY/WX    TMP DP  RH WIND       PRES   REMARKS
PUNTA GORDA    CLEAR     47  44  90 CALM      30.21F
FT MYERS       CLEAR     52  49  89 CALM      30.18F
SOUTHWEST INTL CLEAR     50  47  89 CALM      30.19F
NAPLES         CLEAR     53  51  93 CALM      30.18F
MARCO ISLAND   SUNNY     52  46  82 N3        30.17F
IMMOKALEE      SUNNY     43 N/A N/A CALM      30.20F
MARATHON       PTCLDY    64  58  80 NE7       30.14F
KEY WEST NAS   CLEAR     64  56  75 NE8       30.15F
KEY WEST INTL  CLEAR     64  56  75 N7        30.15F

STATION/POSITION SKY/WX   TEMP    WIND        PRES    WAVE   SWELL
                          AIR SEA DIR/SP/G            HT/PER HT/PER
                          (F)     (DEG/KT/KT) (MB)    (FT/S) (FT/S)
VENICE                     55 63   50/  6/  7 1022.2F
NAPLES                     61 72  100/  3/  4 1022.5F
26.0N   85.6W              68 72  300/  2/  2 1022.9F   2/ 5   2/ 5
DRY TORTUGAS               67      70/ 12/ 14 1021.4F
NW FL BAY                  63      30/ 10/ 12 1021.8F
SAND KEY                   67      30/ 15/ 16 1020.8F
SOMBRERO KEY               65      20/ 12/ 14 1021.1F
LONG KEY                   64 65   10/  9/ 10 1022.0F
MOLASSES REEF              69 75  130/  8/  9 1020.7F

$$
FLZ067-068-071>074-168-172>174-301000-
SOUTHEAST FLORIDA

CITY           SKY/WX    TMP DP  RH WIND       PRES   REMARKS
W PALM BEACH   MOCLDY    59  51  75 NW5       30.16F
FT LAUDER-EXEC MOCLDY    61  52  72 N6        30.16F
FT LAUDERDALE  CLOUDY    61  53  75 NW6       30.16F
POMPANO BEACH  CLOUDY    64  50  60 NW6       30.17S
PEMBROKE PINES CLOUDY    59  53  80 W3        30.18S
OPA LOCKA      MOCLDY    60  53  77 NW6       30.17F
MIAMI          MOCLDY    61  54  77 W3        30.17F
WEST KENDALL   CLOUDY    56  53  90 W6        30.17F
HOMESTEAD      MOCLDY    57  53  84 NW6       30.16F

STATION/POSITION SKY/WX   TEMP    WIND        PRES    WAVE   SWELL
                          AIR SEA DIR/SP/G            HT/PER HT/PER
                          (F)     (DEG/KT/KT) (MB)    (FT/S) (FT/S)
PORT EVERGLADES            63     300/  6/  9 1021.2
VIRGINIA KEY               64 67  310/  4/  5 1021.8S
LAKE WORTH                 62 73  320/  7/  9 1021.2F
SETTLEMENT POINT           63      70/  2/  2 1022.3F

$$




USA.gov is the U.S. government's official web portal to all federal, state and local government web resources and services.